Regional Weather Roundup
Issued by NWS

Home | Current Version | Previous Version | Text Only | Print | Product List | Glossary On
Versions: 1 2 3 4 5 6 7 8 9 10 11 12 13 14 15 16 17 18 19 20 21 22 23 24 25 26 27 28 29 30 31 32 33 34 35 36 37 38 39 40 41 42 43 44 45 46 47 48 49 50
000
ASUS46 KLOX 032313
RWRCA

SOUTHERN CALIFORNIA WEATHER ROUNDUP
NATIONAL WEATHER SERVICE OXNARD CALIFORNIA
400 PM PDT WED JUN 03 2015

NOTE: "FAIR" INDICATES FEW OR NO CLOUDS BELOW 12,000 FEET WITH NO
SIGNIFICANT WEATHER AND/OR OBSTRUCTIONS TO VISIBILITY.

  -  STATIONS PRECEEDED BY AN ASTERISK (*) ARE NOT NWS OR FAA
     STATIONS AND ARE NOT SUBJECT TO NWS AND FAA QUALITY CONTROL.

CAZ041-042-087-040000-
LA AND ORANGE COUNTY COASTAL AREAS


CITY           SKY/WX    TMP DP  RH WIND       PRES   REMARKS
L.A. DOWNTOWN  MOSUNNY   74  57  55 VRB7      29.87F
L.A. AIRPORT   MOSUNNY   67  56  67 W13       29.89F
LONG BEACH     SUNNY     71  55  56 S9        29.88F

CITY           SKY/WX    TMP DP  RH WIND       PRES   REMARKS
FULLERTON      SUNNY     75  55  49 S12       29.86F
HAWTHORNE      SUNNY     72  55  55 W9        29.88F
*LOS ALAMITOS  SUNNY     72  56  57 S13       29.88F
SANTA ANA      MOSUNNY   71  53  52 SW9       29.89F
STA MONICA APT SUNNY     69  55  60 W9        29.89F
TORRANCE       MOSUNNY   73  57  56 NW9       29.89F
*UCLA            N/A     66  54  63 S6        29.86F

$$

CAZ547-548-048-040000-
LA COUNTY VALLEYS AND INLAND EMPIRE


CITY           SKY/WX    TMP DP  RH WIND       PRES   REMARKS
BURBANK        MOSUNNY   72  54  53 CALM      29.88F
VAN NUYS       PTSUNNY   71  55  56 CALM      29.88F

CITY           SKY/WX    TMP DP  RH WIND       PRES   REMARKS
CORONA AIRPORT CLEAR     77  55  46 W13G21    29.86F
CHINO          MOSUNNY   79  57  46 W12G20    29.87F
MARCH AFB      SUNNY     78  54  43 W12       29.87F
*NORTHRIDGE      N/A     70  54  56 E2          N/A
ONTARIO        MOSUNNY   75  54  47 W6        29.87F
*PASADENA        N/A     70  59  68 E9          N/A
RIVERSIDE      SUNNY     77  55  46 W8        29.86F
SAN BERNARDINO NOT AVBL
*WHITEMAN AP   CLOUDY    68  54  60 SE5       29.92F
*WOODLAND HILL   N/A     73  54  49 NE5         N/A

$$

CAZ054-055-040000-
LA AND SAN BERNARDINO COUNTY MOUNTAINS


CITY           SKY/WX    TMP DP  RH WIND       PRES   REMARKS
*BIG BEAR AIRP CLEAR     63  10  13 SW7       30.05F
SANDBERG       SUNNY     69  48  47 SW9G30    29.97F

$$

CAZ028-029-059-060-099-040000-
ANTELOPE VALLEY AND SURROUNDING AREAS


CITY           SKY/WX    TMP DP  RH WIND       PRES   REMARKS
LANCASTER      SUNNY     75  48  38 SW26G37   29.82F
PALMDALE       SUNNY     78  45  30 SW20G30   29.84F

CITY           SKY/WX    TMP DP  RH WIND       PRES   REMARKS
29 PALMS       SUNNY     89  30  12 CALM      29.81F
BARSTOW/DAGGET SUNNY     89  38  16 SW18G31   29.74F
BISHOP         MOSUNNY   87  22   9 S8        29.72F
CHINA LAKE     MOSUNNY   92  36  14 S12G24    29.69F
EDWARDS AFB    MOSUNNY   83  41  22 SW23G31   29.77F
MOJAVE         FAIR      81  39  22 W28G39    29.80F
NEEDLES        SUNNY     98  15   5 SW9G20    29.67F HX  91
VICTORVILLE    SUNNY     82  32  16 W14G21    29.84S

$$

CAZ039-040-040000-
VENTURA AND SANTA BARBARA COUNTY COAST


CITY           SKY/WX    TMP DP  RH WIND       PRES   REMARKS
CAMARILLO      CLOUDY    69  55  60 W14       29.90F
NWS OXNARD       N/A     68  55  64 CALM      29.90F
OXNARD AIRPORT SUNNY     68  55  63 W16       29.91F
*POINT MUGU    PTSUNNY   70  55  59 W17       29.91F
SBA APT/GOLETA MOSUNNY   68  54  60 W10       29.90F
*VENTURA         N/A     67  55  64 SW8       29.50F

$$

CAZ044-045-040000-
VENTURA COUNTY VALLEYS


CITY           SKY/WX    TMP DP  RH WIND       PRES   REMARKS
*SIMI VALLEY     N/A     69  58  68 W12       29.85F
*OJAI            N/A     66  56  69 W3        29.84F
*FILLMORE        N/A     66  58  75 CALM      29.80F

$$

CAZ053-040000-
VENTURA COUNTY MOUNTAINS


CITY           SKY/WX    TMP DP  RH WIND       PRES   REMARKS

$$

CAZ034-035-036-040000-
CENTRAL COAST AND SANTA YNEZ VALLEY


CITY           SKY/WX    TMP DP  RH WIND       PRES   REMARKS
SAN LUIS OBISP SUNNY     64  50  60 NW22      29.92F
SANTA MARIA    SUNNY     66  52  60 NW22      29.94F

CITY           SKY/WX    TMP DP  RH WIND       PRES   REMARKS
*CAL POLY SLO    N/A     68  54  60 W9          N/A
*LOMPOC        PTSUNNY   64  48  55 W18G24    29.97F
*PISMO BEACH     N/A     64  56  76 W9        29.92F
*SANTA YNEZ    FAIR      70  48  46 W17       29.91F

$$

CAZ037-038-051-040000-
SAN LUIS OBISPO COUNTY INTERIOR AND CUYAMA VALLEY


CITY           SKY/WX    TMP DP  RH WIND       PRES   REMARKS
PASO ROBLES    MOSUNNY   78  47  33 SW17      29.86F

$$

CAZ032-033-061-040000-
SOUTHERN DESERTS


CITY           SKY/WX    TMP DP  RH WIND       PRES   REMARKS
BLYTHE         SUNNY     98  31   9 SW21      29.67F HX  92
IMPERIAL       SUNNY     96  37  12 SW25G32   29.68F HX  91
PALM SPRINGS   SUNNY     95  36  12 NW21      29.70F HX  90
THERMAL        SUNNY     98  36  11 NE8       29.64F HX  93

$$

ELSEWHERE ACROSS THE WESTERN UNITED STATES AND MEXICO


CITY           SKY/WX    TMP DP  RH WIND       PRES   REMARKS
DENVER, CO     PTSUNNY   72  55  55 SE18G24   29.97F
GRAND CANYON,  SUNNY     75   8   7 SW16G25   30.03F
HONOLULU, HI   PTSUNNY   84  70  61 E14G22    30.01F
KAHULUI, MAUI  PTSUNNY   84  72  65 NE24G31   30.01F
LAKE TAHOE, CA SUNNY     68  35  29 SW10G21   29.98F
LAS VEGAS, NV  MOSUNNY   93  22   7 S16       29.66F
MAMMOTH LAKES, FAIR      70  19  14 NW21G38   29.98F
MEXICO CITY, M CLOUDY    73  37  27 NE9       30.17F
PHOENIX, AZ    MOSUNNY  101  16   4 W10G21    29.70F HX  93
PORTLAND, OR   LGT RAIN  65  51  60 W9        30.05S
RENO, NV       PTSUNNY   76  27  16 S6        29.85F
SALT LAKE CITY CLOUDY    76  43  30 N10       29.78F
SAN DIEGO, CA  MOSUNNY   66  53  63 SW9       29.93F
SAN FRANCISCO, CLOUDY    60  50  69 W21G26    29.94F
SAN JOSE, CA   CLOUDY    67  50  54 NW14      29.92F
SEATTLE, WA    PTSUNNY   67  49  52 NW5       30.05F
TIJUANA, MEX   SUNNY     70  52  52 SW12      29.93F

$$

STATION/POSITION TIME  TEMP    WIND        PRES    VSBY  WAVE
                       AIR SEA DIR/SP/G                  HT/PER
                 (UTC) (F)     (DEG/KT/KT) (MB)    (MI)  (FT/S)
POINT ARGUELLO B NOT AVBL
WEST SANTA BARBA 2250   57 57  320/ 19/ 25 1013.4F         7/ 8
POINT CONCEPTION NOT AVBL
EAST SANTA BARBA 2200   58 60  270/ 14/ 17 1014.3F
SANTA MONICA BAY 2250   62 65  300/ 10/ 12 1013.0F         4/17



USA.gov is the U.S. government's official web portal to all federal, state and local government web resources and services.